Weather History for KDLZ - June, 2013

Change the Weather History Date:

Wednesday, June 26, 2013

  Actual Average (KCMH) Record (KCMH)
Temperature  
Mean Temperature 73 °F 74 °F  
Max Temperature 82 °F 84 °F 100 °F (1952)
Min Temperature 64 °F 64 °F 48 °F (1960)
Degree Days  
Heating Degree Days 0 0  
Month to date heating degree days 18  
Since 1 June heating degree days 18  
Since 1 July heating degree days 5245  
Cooling Degree Days 8 9  
Month to date cooling degree days 177  
Year to date cooling degree days 259  
Since 1 June cooling degree days 177  
Growing Degree Days 23 (Base 50)    
Moisture  
Dew Point 66 °F    
Average Humidity 81    
Maximum Humidity 100    
Minimum Humidity 61    
Precipitation  
Precipitation 1.20 in 0.13 in 2.31 in (2008)
Month to date precipitation 3.51  
Year to date precipitation 19.08  
Snow  
Snow 0.00 in 0.00 in 0.00 in ()
Month to date snowfall 0.0  
Since 1 June snowfall 0.0  
Since 1 July snowfall 26.7  
Snow Depth -    
Sea Level Pressure  
Sea Level Pressure 29.89 in    
Wind  
Wind Speed 5 mph (SSW)    
Max Wind Speed 20 mph    
Max Gust Speed 29 mph    
Visibility 10 miles    
Events Rain , Thunderstorm    
T = Trace of Precipitation, MM = Missing Value Source: NWS Daily Summary

Daily Weather History Graph

Daily Weather History Graph

Search for Another Location

Airport or City:

Trip Planner

Search our weather history database for the weather conditions in past years. The results will help you decide how hot, cold, wet, or windy it might be!

Date:

Astronomy

Jun. 26, 2013 Rise Set
Actual Time 6:04 AM EDT 9:06 PM EDT
Civil Twilight 5:31 AM EDT 9:39 PM EDT
Nautical Twilight 4:49 AM EDT 10:21 PM EDT
Astronomical Twilight 4:00 AM EDT 11:10 PM EDT
Moon 11:28 PM EDT (6/26) 9:55 AM EDT (6/26)
Length of Visible Light 16h 07m
Length of Day
15h 01m
Waning Gibbous, 85% of the Moon is Illuminated
Jun 26
Waning Gibbous
Jun 30
Last Quarter
Jul 8
New
Jul 15
First Quarter
Jul 22
Full

Hourly Weather History & Observations

Time (EDT) Temp. Heat Index Dew Point Humidity Pressure Visibility Wind Dir Wind Speed Gust Speed Precip Events Conditions
12:16 AM 77.0 °F - 68.0 °F 74% 29.92 in 10.0 mi SSW 4.6 mph - N/A   Scattered Clouds
12:36 AM 77.0 °F - 68.0 °F 74% 29.92 in 10.0 mi SW 5.8 mph - N/A Thunderstorm Mostly Cloudy
12:55 AM 68.0 °F - 62.6 °F 83% 29.92 in 2.0 mi South 9.2 mph 19.6 mph 0.18 in Rain , Thunderstorm Heavy Thunderstorms and Rain
1:16 AM 68.0 °F - 64.4 °F 88% 29.90 in 7.0 mi Calm Calm - 0.01 in Rain , Thunderstorm Light Thunderstorms and Rain
1:36 AM 68.0 °F - 64.4 °F 88% 29.92 in 10.0 mi Calm Calm - 0.02 in Thunderstorm Thunderstorm
1:55 AM 66.2 °F - 62.6 °F 88% 29.95 in 2.5 mi North 19.6 mph 28.8 mph 0.47 in Rain , Thunderstorm Heavy Thunderstorms and Rain
2:16 AM 64.4 °F - 62.6 °F 94% 29.96 in 4.0 mi North 12.7 mph - 0.10 in Rain , Thunderstorm Heavy Thunderstorms and Rain
2:36 AM 64.4 °F - 62.6 °F 94% 29.93 in 5.0 mi NNE 8.1 mph - 0.43 in Rain , Thunderstorm Rain
2:55 AM 64.4 °F - 62.6 °F 94% 29.95 in 10.0 mi Calm Calm - 0.44 in Rain , Thunderstorm Light Thunderstorms and Rain
3:16 AM 64.4 °F - 62.6 °F 94% 29.94 in 10.0 mi Calm Calm - 0.02 in Rain Light Rain
3:36 AM 64.4 °F - 62.6 °F 94% 29.91 in 10.0 mi NE 9.2 mph - 0.02 in Rain , Thunderstorm Rain
3:55 AM 64.4 °F - 62.6 °F 94% 29.90 in 10.0 mi Calm Calm - 0.02 in   Scattered Clouds
4:16 AM 64.4 °F - 62.6 °F 94% 29.91 in 10.0 mi Calm Calm - N/A   Scattered Clouds
4:36 AM 64.4 °F - 62.6 °F 94% 29.92 in 10.0 mi Calm Calm - N/A   Mostly Cloudy
4:55 AM 64.4 °F - 64.4 °F 100% 29.94 in 7.0 mi SSW 5.8 mph - 0.04 in Rain Light Rain
5:16 AM 64.4 °F - 62.6 °F 94% 29.93 in 10.0 mi South 6.9 mph - 0.01 in Rain Light Rain
5:36 AM 64.4 °F - 62.6 °F 94% 29.93 in 10.0 mi SSE 4.6 mph - 0.01 in   Overcast
5:55 AM 64.4 °F - 62.6 °F 94% 29.92 in 10.0 mi SSE 4.6 mph - 0.01 in   Overcast
6:16 AM 64.4 °F - 62.6 °F 94% 29.93 in 10.0 mi South 3.5 mph - N/A   Overcast
6:36 AM 64.4 °F - 62.6 °F 94% 29.94 in 10.0 mi South 3.5 mph - N/A   Mostly Cloudy
6:55 AM 64.4 °F - 64.4 °F 100% 29.94 in 10.0 mi South 3.5 mph - N/A   Overcast
7:16 AM 66.2 °F - 64.4 °F 94% 29.93 in 10.0 mi South 4.6 mph - N/A   Overcast
7:35 AM 66.2 °F - 64.4 °F 94% 29.92 in 10.0 mi SSE 4.6 mph - N/A   Overcast
7:56 AM 68.0 °F - 64.4 °F 88% 29.91 in 10.0 mi Calm Calm - N/A   Overcast
8:16 AM 68.0 °F - 64.4 °F 88% 29.92 in 10.0 mi Calm Calm - N/A   Overcast
8:35 AM 68.0 °F - 64.4 °F 88% 29.92 in 10.0 mi Calm Calm - N/A   Overcast
8:56 AM 68.0 °F - 64.4 °F 88% 29.93 in 7.0 mi WSW 3.5 mph - N/A   Overcast
9:16 AM 68.0 °F - 64.4 °F 88% 29.92 in 7.0 mi Calm Calm - N/A   Overcast
9:35 AM 69.8 °F - 66.2 °F 88% 29.92 in 10.0 mi West 3.5 mph - N/A   Mostly Cloudy
9:56 AM 71.6 °F - 66.2 °F 83% 29.92 in 10.0 mi SSW 3.5 mph - N/A   Scattered Clouds
10:16 AM 73.4 °F - 68.0 °F 83% 29.92 in 10.0 mi SW 5.8 mph - N/A   Scattered Clouds
10:35 AM 73.4 °F - 68.0 °F 83% 29.92 in 10.0 mi SW 4.6 mph - N/A   Mostly Cloudy
10:56 AM 73.4 °F - 68.0 °F 83% 29.93 in 10.0 mi SW 4.6 mph - N/A   Overcast
11:16 AM 77.0 °F - 68.0 °F 74% 29.92 in 10.0 mi SW 6.9 mph - N/A   Mostly Cloudy
11:35 AM 77.0 °F - 68.0 °F 74% 29.93 in 10.0 mi SW 5.8 mph - N/A   Mostly Cloudy
11:56 AM 78.8 °F - 68.0 °F 69% 29.93 in 10.0 mi West 9.2 mph - N/A   Scattered Clouds
12:16 PM 77.0 °F - 66.2 °F 69% 29.94 in 10.0 mi WSW 9.2 mph - N/A   Scattered Clouds
12:36 PM 77.0 °F - 68.0 °F 74% 29.94 in 10.0 mi West 3.5 mph - 0.01 in Rain Rain
12:56 PM 75.2 °F - 68.0 °F 78% 29.93 in 10.0 mi WNW 3.5 mph - 0.04 in   Overcast
1:16 PM 77.0 °F - 68.0 °F 74% 29.92 in 10.0 mi Calm Calm - N/A   Scattered Clouds
1:36 PM 80.6 °F 83.2 °F 68.0 °F 65% 29.91 in 10.0 mi SSW 3.5 mph - N/A   Scattered Clouds
1:56 PM 80.6 °F 83.2 °F 68.0 °F 65% 29.90 in 10.0 mi SW 5.8 mph - N/A   Scattered Clouds
2:16 PM 80.6 °F 83.2 °F 68.0 °F 65% 29.90 in 10.0 mi SSW 5.8 mph - N/A   Mostly Cloudy
2:36 PM 80.6 °F 83.9 °F 69.8 °F 70% 29.89 in 10.0 mi SSW 5.8 mph - N/A   Mostly Cloudy
2:56 PM 82.4 °F 86.3 °F 69.8 °F 66% 29.88 in 10.0 mi South 8.1 mph - N/A   Scattered Clouds
3:16 PM 82.4 °F 86.3 °F 69.8 °F 66% 29.87 in 10.0 mi South 9.2 mph - N/A   Scattered Clouds
3:36 PM 82.4 °F 86.3 °F 69.8 °F 66% 29.87 in 10.0 mi SW 6.9 mph - N/A   Scattered Clouds
3:56 PM 82.4 °F 86.3 °F 69.8 °F 66% 29.86 in 10.0 mi SSW 8.1 mph - N/A   Mostly Cloudy
4:16 PM 82.4 °F 86.3 °F 69.8 °F 66% 29.84 in 10.0 mi South 6.9 mph - N/A   Mostly Cloudy
4:36 PM 82.4 °F 86.3 °F 69.8 °F 66% 29.84 in 10.0 mi SSW 8.1 mph - N/A   Scattered Clouds
4:56 PM 82.4 °F 85.4 °F 68.0 °F 62% 29.83 in 10.0 mi South 8.1 mph - N/A   Scattered Clouds
5:15 PM 82.4 °F 86.3 °F 69.8 °F 66% 29.83 in 10.0 mi South 8.1 mph - N/A   Scattered Clouds
5:36 PM 80.6 °F 83.9 °F 69.8 °F 70% 29.82 in 10.0 mi South 8.1 mph - N/A   Mostly Cloudy
5:56 PM 80.6 °F 83.2 °F 68.0 °F 65% 29.82 in 10.0 mi SSW 10.4 mph - N/A   Mostly Cloudy
6:16 PM 77.0 °F - 62.6 °F 61% 29.82 in 10.0 mi WSW 13.8 mph 25.3 mph N/A   Scattered Clouds
6:36 PM 73.4 °F - 62.6 °F 69% 29.81 in 10.0 mi SW 9.2 mph - N/A   Clear
6:56 PM 73.4 °F - 60.8 °F 65% 29.82 in 10.0 mi SSW 6.9 mph - N/A   Clear
7:16 PM 73.4 °F - 62.6 °F 69% 29.83 in 10.0 mi Calm Calm - N/A   Mostly Cloudy
7:36 PM 71.6 °F - 62.6 °F 73% 29.82 in 10.0 mi SSW 4.6 mph - N/A   Overcast
7:56 PM 73.4 °F - 62.6 °F 69% 29.82 in 10.0 mi South 6.9 mph - N/A   Mostly Cloudy
8:16 PM 71.6 °F - 64.4 °F 78% 29.82 in 10.0 mi Calm Calm - N/A   Clear
8:36 PM 71.6 °F - 64.4 °F 78% 29.83 in 10.0 mi South 3.5 mph - N/A   Mostly Cloudy
8:56 PM 71.6 °F - 64.4 °F 78% 29.83 in 10.0 mi SSE 4.6 mph - N/A   Mostly Cloudy
9:16 PM 71.6 °F - 64.4 °F 78% 29.82 in 10.0 mi Calm Calm - N/A   Scattered Clouds
9:36 PM 69.8 °F - 66.2 °F 88% 29.81 in 10.0 mi SE 4.6 mph - N/A   Clear
9:56 PM 69.8 °F - 66.2 °F 88% 29.81 in 10.0 mi SE 3.5 mph - N/A   Clear
10:16 PM 69.8 °F - 66.2 °F 88% 29.81 in 10.0 mi ESE 4.6 mph - N/A   Clear
10:36 PM 69.8 °F - 66.2 °F 88% 29.82 in 10.0 mi SSE 5.8 mph - N/A   Clear
10:56 PM 69.8 °F - 64.4 °F 83% 29.81 in 10.0 mi SE 4.6 mph - N/A   Scattered Clouds
11:16 PM 69.8 °F - 64.4 °F 83% 29.82 in 10.0 mi SSE 4.6 mph - N/A   Overcast
11:36 PM 69.8 °F - 64.4 °F 83% 29.82 in 10.0 mi SSE 6.9 mph - N/A   Mostly Cloudy
11:56 PM 68.0 °F - 66.2 °F 94% 29.82 in 10.0 mi SSE 6.9 mph - N/A Rain Light Rain